| time (UTC) | temp F | wind direction | speed knots | gust knots | rain 1hr in | rain 24hr in | rain mn in | humidity % | barometer mb |
| 20260505011017 | 71 | 23 | 4.3 | 10.4 | 0.00 | 0.00 | 0.00 | 31 | 1001.8 |
| 20260505010017 | 71 | 0 | 5.2 | 11.3 | 0.00 | 0.00 | 0.00 | 30 | 1001.3 |
| 20260505005017 | 72 | 23 | 6.1 | 13.0 | 0.00 | 0.00 | 0.00 | 29 | 1001.4 |
| 20260505004017 | 74 | 338 | 4.3 | 11.3 | 0.00 | 0.00 | 0.00 | 29 | 1001.3 |
| 20260505003017 | 75 | 0 | 5.2 | 12.2 | 0.00 | 0.00 | 0.00 | 28 | 1000.6 |
| 20260505002017 | 76 | 0 | 6.1 | 13.9 | 0.00 | 0.00 | 0.00 | 28 | 1000.4 |
| 20260505001017 | 76 | 45 | 4.3 | 12.2 | 0.00 | 0.00 | 0.00 | 30 | 1000.4 |
| 20260505000017 | 77 | 0 | 5.2 | 9.6 | 0.00 | 0.00 | 0.00 | 30 | 1000.4 |
| 20260504235017 | 77 | 23 | 5.2 | 13.9 | 0.00 | 0.00 | 0.00 | 31 | 1000.5 |
| 20260504234017 | 78 | 45 | 4.3 | 9.6 | 0.00 | 0.00 | 0.00 | 31 | 1000.3 |
| 20260504233017 | 79 | 0 | 5.2 | 12.2 | 0.00 | 0.00 | 0.00 | 30 | 1000.3 |
| 20260504232017 | 81 | 0 | 5.2 | 15.6 | 0.00 | 0.00 | 0.00 | 28 | 1000.4 |
| 20260504231017 | 82 | 338 | 5.2 | 13.0 | 0.00 | 0.00 | 0.00 | 27 | 1000.2 |
| 20260504230017 | 84 | 0 | 5.2 | 13.0 | 0.00 | 0.00 | 0.00 | 25 | 1000.3 |
| 20260504225017 | 85 | 23 | 2.6 | 7.0 | 0.00 | 0.00 | 0.00 | 20 | 1000.1 |
| 20260504224017 | 85 | 293 | 0.9 | 2.6 | 0.00 | 0.00 | 0.00 | 21 | 1000.0 |
| 20260504223017 | 85 | 0.0 | 1.7 | 0.00 | 0.00 | 0.00 | 22 | 999.9 | |
| 20260504222017 | 85 | 90 | 1.7 | 3.5 | 0.00 | 0.00 | 0.00 | 23 | 999.7 |
| 20260504221017 | 85 | 225 | 1.7 | 3.5 | 0.00 | 0.00 | 0.00 | 24 | 999.7 |
| 20260504220017 | 85 | 0 | 1.7 | 3.5 | 0.00 | 0.00 | 0.00 | 29 | 999.8 |
| 20260504215017 | 85 | 293 | 3.5 | 7.0 | 0.00 | 0.00 | 0.00 | 21 | 999.9 |
| 20260504214017 | 86 | 338 | 3.5 | 7.8 | 0.00 | 0.00 | 0.00 | 20 | 999.9 |
| 20260504213017 | 86 | 45 | 2.6 | 7.8 | 0.00 | 0.00 | 0.00 | 21 | 1000.1 |
| 20260504212016 | 86 | 45 | 3.5 | 10.4 | 0.00 | 0.00 | 0.00 | 19 | 1000.1 |
| 20260504211016 | 86 | 0 | 1.7 | 4.3 | 0.00 | 0.00 | 0.00 | 21 | 1000.2 |
| 20260504210016 | 86 | 338 | 0.9 | 2.6 | 0.00 | 0.00 | 0.00 | 25 | 1000.3 |
| 20260504205016 | 86 | 293 | 2.6 | 6.1 | 0.00 | 0.00 | 0.00 | 20 | 1000.5 |
| 20260504204016 | 85 | 270 | 4.3 | 11.3 | 0.00 | 0.00 | 0.00 | 22 | 1000.6 |
| 20260504203016 | 85 | 270 | 3.5 | 7.0 | 0.00 | 0.00 | 0.00 | 19 | 1000.6 |
| 20260504202016 | 85 | 338 | 3.5 | 7.8 | 0.00 | 0.00 | 0.00 | 21 | 1000.8 |
| 20260504201016 | 85 | 270 | 1.7 | 5.2 | 0.00 | 0.00 | 0.00 | 26 | 1001.0 |
| 20260504200016 | 85 | 315 | 2.6 | 7.8 | 0.00 | 0.00 | 0.00 | 22 | 1001.1 |
| 20260504195016 | 84 | 315 | 2.6 | 7.8 | 0.00 | 0.00 | 0.00 | 23 | 1001.1 |
| 20260504194016 | 85 | 338 | 4.3 | 9.6 | 0.00 | 0.00 | 0.00 | 22 | 1001.3 |
| 20260504193017 | 85 | 338 | 2.6 | 5.2 | 0.00 | 0.00 | 0.00 | 21 | 1001.1 |
| 20260504192016 | 85 | 45 | 2.6 | 7.8 | 0.00 | 0.00 | 0.00 | 25 | 1001.2 |
| 20260504191016 | 84 | 315 | 3.5 | 7.8 | 0.00 | 0.00 | 0.00 | 23 | 1001.1 |
| 20260504190016 | 84 | 293 | 6.1 | 13.9 | 0.00 | 0.00 | 0.00 | 22 | 1001.3 |
| 20260504185016 | 83 | 23 | 3.5 | 8.7 | 0.00 | 0.00 | 0.00 | 24 | 1001.3 |
| 20260504184016 | 83 | 293 | 2.6 | 6.1 | 0.00 | 0.00 | 0.00 | 25 | 1001.4 |
| 20260504183016 | 83 | 315 | 4.3 | 8.7 | 0.00 | 0.00 | 0.00 | 24 | 1001.4 |
| 20260504182016 | 83 | 315 | 3.5 | 7.0 | 0.00 | 0.00 | 0.00 | 25 | 1001.5 |
| 20260504181016 | 83 | 338 | 4.3 | 9.6 | 0.00 | 0.00 | 0.00 | 25 | 1001.4 |
| 20260504180016 | 82 | 338 | 3.5 | 7.0 | 0.00 | 0.00 | 0.00 | 24 | 1001.6 |
| 20260504175016 | 82 | 338 | 6.1 | 12.2 | 0.00 | 0.00 | 0.00 | 24 | 1001.6 |
| 20260504174016 | 82 | 0 | 3.5 | 10.4 | 0.00 | 0.00 | 0.00 | 27 | 1001.7 |
| 20260504173016 | 82 | 338 | 4.3 | 9.6 | 0.00 | 0.00 | 0.00 | 24 | 1001.9 |
| 20260504172016 | 82 | 315 | 6.1 | 9.6 | 0.00 | 0.00 | 0.00 | 25 | 1002.0 |
| 20260504171016 | 81 | 338 | 5.2 | 13.9 | 0.00 | 0.00 | 0.00 | 27 | 1002.0 |
| 20260504151016 | 72 | 270 | 4.3 | 8.7 | 0.00 | 0.00 | 0.00 | 50 | 1002.1 |
| 20260504141016 | 64 | 270 | 5.2 | 8.7 | 0.00 | 0.00 | 0.00 | 60 | 1001.8 |
| 20260504081017 | 51 | 0.0 | 0.9 | 0.00 | 0.00 | 0.00 | 68 | 1002.8 | |
| 20260504050017 | 57 | 0.0 | 0.0 | 0.00 | 0.00 | 0.00 | 59 | 1005.9 | |
| 20260504045016 | 58 | 0.0 | 0.0 | 0.00 | 0.00 | 0.00 | 59 | 1005.7 | |
| 20260504044016 | 58 | 0.0 | 0.0 | 0.00 | 0.00 | 0.00 | 58 | 1005.7 | |
| 20260504043016 | 59 | 68 | 0.9 | 1.7 | 0.00 | 0.00 | 0.00 | 56 | 1005.8 |
| 20260504042016 | 59 | 68 | 1.7 | 2.6 | 0.00 | 0.00 | 0.00 | 55 | 1005.5 |
| 20260504041016 | 60 | 68 | 0.9 | 2.6 | 0.00 | 0.00 | 0.00 | 55 | 1005.5 |
| 20260504040016 | 60 | 68 | 0.9 | 2.6 | 0.00 | 0.00 | 0.00 | 54 | 1005.7 |
| 20260504035016 | 60 | 68 | 0.9 | 1.7 | 0.00 | 0.00 | 0.00 | 54 | 1005.6 |
| 20260504034016 | 60 | 68 | 0.9 | 1.7 | 0.00 | 0.00 | 0.00 | 54 | 1006.0 |
| 20260504033016 | 61 | 68 | 0.9 | 2.6 | 0.00 | 0.00 | 0.00 | 54 | 1006.2 |
| 20260504032016 | 61 | 0.0 | 1.7 | 0.00 | 0.00 | 0.00 | 54 | 1006.1 | |
| 20260504031016 | 62 | 68 | 0.9 | 2.6 | 0.00 | 0.00 | 0.00 | 53 | 1006.2 |
| 20260504030016 | 62 | 68 | 0.9 | 1.7 | 0.00 | 0.00 | 0.00 | 52 | 1006.5 |
| 20260504025016 | 63 | 68 | 1.7 | 2.6 | 0.00 | 0.00 | 0.00 | 52 | 1006.5 |
| 20260504024016 | 63 | 68 | 0.9 | 2.6 | 0.00 | 0.00 | 0.00 | 51 | 1006.6 |
| 20260504023015 | 64 | 68 | 0.9 | 1.7 | 0.00 | 0.00 | 0.00 | 51 | 1006.3 |
| 20260504022016 | 64 | 68 | 0.9 | 1.7 | 0.00 | 0.00 | 0.00 | 49 | 1006.1 |
| 20260504021016 | 65 | 0.0 | 0.0 | 0.00 | 0.00 | 0.00 | 49 | 1006.5 | |
| 20260504020015 | 65 | 68 | 0.9 | 1.7 | 0.00 | 0.00 | 0.00 | 47 | 1006.3 |
| 20260504015015 | 66 | 0.0 | 0.0 | 0.00 | 0.00 | 0.00 | 45 | 1006.1 | |
| 20260504014015 | 66 | 0.0 | 0.9 | 0.00 | 0.00 | 0.00 | 45 | 1006.1 | |
| 20260504013015 | 67 | 68 | 0.9 | 1.7 | 0.00 | 0.00 | 0.00 | 44 | 1005.8 |
| 20260504012015 | 68 | 0.0 | 1.7 | 0.00 | 0.00 | 0.00 | 43 | 1005.9 |